EW9081 Weather Reports


time (UTC)temp
C
wind
direction
speed
KPH
gust
KPH
rain 1hr
cm
rain 24hr
cm
rain mn
cm
humidity
%
barometer
mb
20260831175110 21 287 1.6 6.4 0.00 0.00 0.00 54 1010.5
20260831174610 21 184 1.6 6.4 0.00 0.00 0.00 55 1010.6
20260831173609 21 170 1.6 6.4 0.00 0.00 0.00 57 1010.6
20260831173109 21 167 1.6 6.4 0.00 0.00 0.00 56 1010.7
20260831172606 21 182 1.6 4.8 0.00 0.00 0.00 57 1010.7
20260831172107 21 76 1.6 4.8 0.00 0.00 0.00 58 1010.7
20260831171607 20 133 1.6 6.4 0.00 0.00 0.00 58 1010.9
20260831171112 20 179 0.0 3.2 0.00 0.00 0.00 59 1011.0
20260831171107 20 191 1.6 6.4 0.00 0.00 0.00 58 1011.0
20260831170106 20 85 0.0 3.2 0.00 0.00 0.00 61 1011.0
20260831165607 20 73 0.0 4.8 0.00 0.00 0.00 63 1011.0
20260831165103 19 49 1.6 4.8 0.00 0.00 0.00 63 1011.1
20260831164604 19 13 1.6 4.8 0.00 0.00 0.00 64 1011.1
20260831164104 19 5 1.6 4.8 0.00 0.00 0.00 68 1011.2
20260831163604 18 290 0.0 4.8 0.00 0.00 0.00 68 1011.1
20260831163103 18 289 0.0 4.8 0.00 0.00 0.00 68 1011.1
20260831162603 18 230 0.0 0.0 0.00 0.00 0.00 70 1011.3
20260831162104 17 230 0.0 0.0 0.00 0.00 0.00 74 1011.3
20260831161603 16 230 0.0 3.2 0.00 0.00 0.00 76 1011.3
20260831161108 15 230 0.0 3.2 0.00 0.00 0.00 78 1011.5
20260831161103 16 230 0.0 3.2 0.00 0.00 0.00 78 1011.4
20260831160717 14 228 0.0 3.2 0.00 0.00 0.00 82 1011.5
20260831160104 15 230 0.0 3.2 0.00 0.00 0.00 80 1011.5
20260831155103 14 228 1.6 4.8 0.00 0.00 0.00 83 1011.6
20260831154604 13 221 1.6 4.8 0.00 0.00 0.00 83 1011.6
20260831154103 13 226 0.0 4.8 0.00 0.00 0.00 85 1011.6
20260831153604 13 277 0.0 0.0 0.00 0.00 0.00 86 1011.7
20260831153105 13 231 0.0 0.0 0.00 0.00 0.00 87 1011.6
20260831152604 12 228 0.0 0.0 0.00 0.00 0.00 88 1011.7
20260831152108 12 213 0.0 0.0 0.00 0.00 0.00 90 1011.7
20260831152103 12 215 0.0 0.0 0.00 0.00 0.00 89 1011.7
20260831151109 11 213 0.0 0.0 0.00 0.00 0.00 92 1011.8
20260831151104 12 213 0.0 0.0 0.00 0.00 0.00 91 1011.8
20260831150104 11 213 0.0 0.0 0.00 0.00 0.00 92 1011.8
20260831145604 11 213 0.0 0.0 0.00 0.00 0.00 92 1011.9
20260831145103 11 213 0.0 0.0 0.00 0.00 0.00 93 1011.9
20260831144604 10 213 0.0 0.0 0.00 0.00 0.00 93 1011.9
20260831144105 10 212 0.0 0.0 0.00 0.00 0.00 94 1011.8
20260831143605 10 212 0.0 0.0 0.00 0.00 0.00 95 1011.7
20260831143104 10 212 0.0 0.0 0.00 0.00 0.00 95 1011.7
20260831142603 9 212 0.0 0.0 0.00 0.00 0.00 95 1011.8
20260831142105 8 174 0.0 0.0 0.00 0.00 0.00 94 1011.7
20260831141609 8 174 0.0 0.0 0.00 0.00 0.00 93 1011.8
20260831141605 8 174 0.0 0.0 0.00 0.00 0.00 92 1011.7
20260831141216 8 174 0.0 0.0 0.00 0.00 0.00 91 1011.8
20260831140108 9 174 0.0 0.0 0.00 0.00 0.00 92 1011.7
20260831135602 8 174 0.0 0.0 0.00 0.00 0.00 90 1011.7
20260831134603 9 174 0.0 0.0 0.00 0.00 0.00 91 1011.8
20260831134102 9 174 0.0 0.0 0.00 0.00 0.00 91 1011.8
20260831133602 9 174 0.0 0.0 0.00 0.00 0.00 91 1011.8
20260831133108 9 174 0.0 0.0 0.00 0.00 0.00 90 1011.9
20260831133103 9 174 0.0 0.0 0.00 0.00 0.00 91 1011.8
20260831132101 10 174 0.0 0.0 0.00 0.00 0.00 90 1011.9
20260831131600 10 174 0.0 0.0 0.00 0.00 0.00 91 1011.9
20260831131103 10 174 0.0 0.0 0.00 0.00 0.00 91 1012.0
20260831131057 10 174 0.0 0.0 0.00 0.00 0.00 91 1011.9
20260831130057 10 174 0.0 0.0 0.00 0.00 0.00 91 1012.0
20260831125711 10 174 0.0 0.0 0.00 0.00 0.00 92 1011.9
20260831124557 10 174 0.0 0.0 0.00 0.00 0.00 91 1011.9
20260831124057 10 174 0.0 0.0 0.00 0.00 0.00 91 1011.9
20260831123558 10 174 0.0 0.0 0.00 0.00 0.00 91 1011.9
20260831123057 10 174 0.0 0.0 0.00 0.00 0.00 92 1012.0
20260831122556 10 173 0.0 0.0 0.00 0.00 0.00 92 1012.0
20260831122053 10 174 0.0 0.0 0.00 0.00 0.00 90 1012.0
20260831121554 10 174 0.0 0.0 0.00 0.00 0.00 90 1012.1
20260831121053 10 174 0.0 0.0 0.00 0.00 0.00 91 1012.2
20260831120553 10 174 0.0 0.0 0.00 0.00 0.00 90 1012.2
20260831120055 10 173 0.0 0.0 0.00 0.00 0.00 91 1012.3
20260831120051 10 174 0.0 0.0 0.00 0.00 0.00 91 1012.2
20260831115051 10 173 0.0 0.0 0.00 0.00 0.00 90 1012.3
20260831114551 10 173 0.0 0.0 0.00 0.00 0.00 89 1012.3
20260831114051 10 173 0.0 0.0 0.00 0.00 0.00 89 1012.4
20260831113551 10 173 0.0 0.0 0.00 0.00 0.00 89 1012.4
20260831113053 10 173 0.0 0.0 0.00 0.00 0.00 90 1012.4
20260831113049 10 173 0.0 0.0 0.00 0.00 0.00 89 1012.4
20260831112050 10 173 0.0 0.0 0.00 0.00 0.00 91 1012.4
20260831111549 10 173 0.0 0.0 0.00 0.00 0.00 91 1012.5
20260831111049 10 173 0.0 0.0 0.00 0.00 0.00 90 1012.5
20260831110549 10 173 0.0 0.0 0.00 0.00 0.00 90 1012.4
20260831110049 10 173 0.0 0.0 0.00 0.00 0.00 90 1012.4
20260831105551 10 173 0.0 0.0 0.00 0.00 0.00 91 1012.4
20260831105050 10 173 0.0 0.0 0.00 0.00 0.00 90 1012.5
20260831104548 10 173 0.0 3.2 0.00 0.00 0.00 90 1012.5
20260831104048 10 173 0.0 3.2 0.00 0.00 0.00 90 1012.5
20260831103553 10 173 0.0 0.0 0.00 0.00 0.00 89 1012.6
20260831103548 10 173 0.0 3.2 0.00 0.00 0.00 90 1012.5
20260831103047 10 173 0.0 3.2 0.00 0.00 0.00 90 1012.5
20260831102047 10 173 0.0 0.0 0.00 0.00 0.00 89 1012.6
20260831101547 10 173 0.0 0.0 0.00 0.00 0.00 89 1012.6
20260831101047 10 173 0.0 0.0 0.00 0.00 0.00 88 1012.6
20260831100548 10 173 0.0 0.0 0.00 0.00 0.00 88 1012.8
20260831100047 10 173 0.0 0.0 0.00 0.00 0.00 87 1012.7
20260831095548 11 173 0.0 0.0 0.00 0.00 0.00 87 1012.8
20260831095046 11 173 0.0 3.2 0.00 0.00 0.00 87 1012.9
20260831094545 11 173 0.0 3.2 0.00 0.00 0.00 87 1012.9
20260831094046 11 173 0.0 3.2 0.00 0.00 0.00 87 1012.9
20260831093545 11 173 1.6 3.2 0.00 0.00 0.00 88 1013.1
20260831093045 11 173 0.0 3.2 0.00 0.00 0.00 88 1013.1
20260831092547 11 173 0.0 3.2 0.00 0.00 0.00 89 1013.2
20260831092045 11 173 0.0 3.2 0.00 0.00 0.00 89 1013.2
20260831091546 11 173 0.0 1.6 0.00 0.00 0.00 89 1013.3
20260831091045 11 173 0.0 0.0 0.00 0.00 0.00 87 1013.3
20260831090545 11 173 0.0 0.0 0.00 0.00 0.00 87 1013.3
20260831090043 11 173 0.0 0.0 0.00 0.00 0.00 87 1013.4
20260831085543 11 173 0.0 3.2 0.00 0.00 0.00 87 1013.5
20260831085044 11 173 0.0 3.2 0.00 0.00 0.00 88 1013.5
20260831084543 11 173 0.0 0.0 0.00 0.00 0.00 87 1013.5
20260831084043 11 173 0.0 0.0 0.00 0.00 0.00 86 1013.5
20260831083543 12 173 0.0 0.0 0.00 0.00 0.00 85 1013.6
20260831083043 12 173 0.0 0.0 0.00 0.00 0.00 85 1013.6
20260831082547 12 173 0.0 3.2 0.00 0.00 0.00 87 1013.6
20260831082543 12 173 0.0 3.2 0.00 0.00 0.00 87 1013.6
20260831081543 12 171 0.0 3.2 0.00 0.00 0.00 87 1013.8
20260831081043 12 201 0.0 0.0 0.00 0.00 0.00 86 1013.8
20260831080544 12 201 0.0 0.0 0.00 0.00 0.00 85 1013.9
20260831080043 12 201 0.0 3.2 0.00 0.00 0.00 86 1013.9
20260831075548 12 173 0.0 0.0 0.00 0.00 0.00 86 1014.0
20260831075543 12 201 0.0 3.2 0.00 0.00 0.00 86 1014.0
20260831074540 12 173 0.0 3.2 0.00 0.00 0.00 85 1014.0
20260831074040 12 173 0.0 3.2 0.00 0.00 0.00 85 1014.0
20260831073540 12 173 0.0 3.2 0.00 0.00 0.00 83 1014.1
20260831073042 12 173 0.0 1.6 0.00 0.00 0.00 83 1014.2
20260831072544 12 173 0.0 3.2 0.00 0.00 0.00 82 1014.2
20260831072539 12 173 0.0 3.2 0.00 0.00 0.00 84 1014.2
20260831071539 13 173 0.0 3.2 0.00 0.00 0.00 83 1014.2
20260831071039 13 173 0.0 3.2 0.00 0.00 0.00 83 1014.3
20260831070539 13 173 0.0 4.8 0.00 0.00 0.00 83 1014.2
20260831070040 13 173 1.6 4.8 0.00 0.00 0.00 83 1014.3
20260831065545 13 173 1.6 4.8 0.00 0.00 0.00 83 1014.5
20260831065539 13 173 1.6 4.8 0.00 0.00 0.00 83 1014.4
20260831064538 13 173 0.0 3.2 0.00 0.00 0.00 83 1014.5
20260831064043 13 205 0.0 0.0 0.00 0.00 0.00 83 1014.5
20260831064039 13 205 0.0 3.2 0.00 0.00 0.00 83 1014.5
20260831063037 13 205 0.0 0.0 0.00 0.00 0.00 83 1014.5
20260831062537 13 205 0.0 0.0 0.00 0.00 0.00 84 1014.5
20260831062037 13 205 0.0 0.0 0.00 0.00 0.00 83 1014.6
20260831061542 13 205 0.0 0.0 0.00 0.00 0.00 81 1014.8
20260831061538 13 205 0.0 0.0 0.00 0.00 0.00 81 1014.7
20260831060537 13 205 0.0 0.0 0.00 0.00 0.00 81 1014.8
20260831060036 13 205 0.0 0.0 0.00 0.00 0.00 82 1014.9
20260831055535 13 205 0.0 0.0 0.00 0.00 0.00 82 1015.0
20260831055035 13 205 0.0 0.0 0.00 0.00 0.00 81 1015.0
20260831054537 13 205 0.0 0.0 0.00 0.00 0.00 81 1015.0
20260831054035 13 205 0.0 0.0 0.00 0.00 0.00 80 1014.9
20260831053535 13 205 0.0 3.2 0.00 0.00 0.00 78 1015.1
20260831053035 14 205 0.0 3.2 0.00 0.00 0.00 78 1015.2
20260831052540 14 205 0.0 3.2 0.00 0.00 0.00 78 1015.2
20260831052535 14 205 0.0 1.6 0.00 0.00 0.00 78 1015.2
20260831052035 14 205 0.0 3.2 0.00 0.00 0.00 77 1015.2
20260831051649 14 205 0.0 0.0 0.00 0.00 0.00 77 1015.3
20260831050533 14 205 0.0 0.0 0.00 0.00 0.00 76 1015.3
20260831050033 15 205 0.0 0.0 0.00 0.00 0.00 76 1015.4
20260831045533 15 205 0.0 0.0 0.00 0.00 0.00 75 1015.4
20260831045033 15 205 0.0 0.0 0.00 0.00 0.00 75 1015.4
20260831044651 15 205 0.0 0.0 0.00 0.00 0.00 73 1015.5
20260831044538 15 205 0.0 0.0 0.00 0.00 0.00 74 1015.5
20260831044532 15 205 0.0 0.0 0.00 0.00 0.00 74 1015.4
20260831044145 15 205 0.0 0.0 0.00 0.00 0.00 73 1015.5
20260831042534 15 205 0.0 0.0 0.00 0.00 0.00 73 1015.5
20260831042034 15 205 0.0 0.0 0.00 0.00 0.00 72 1015.5
20260831041728 15 205 0.0 0.0 0.00 0.00 0.00 71 1015.5
20260831041711 15 205 0.0 0.0 0.00 0.00 0.00 72 1015.5
20260831040532 16 205 0.0 0.0 0.00 0.00 0.00 71 1015.4
20260831040031 16 205 0.0 0.0 0.00 0.00 0.00 70 1015.4
20260831035530 16 205 0.0 0.0 0.00 0.00 0.00 71 1015.4
20260831035031 16 205 0.0 0.0 0.00 0.00 0.00 70 1015.4
20260831034531 16 205 0.0 0.0 0.00 0.00 0.00 71 1015.4
20260831034031 16 205 0.0 0.0 0.00 0.00 0.00 70 1015.3
20260831033531 17 205 0.0 0.0 0.00 0.00 0.00 69 1015.3
20260831033029 17 205 0.0 0.0 0.00 0.00 0.00 68 1015.3
20260831032527 17 205 0.0 4.8 0.00 0.00 0.00 66 1015.3
20260831032028 18 205 0.0 4.8 0.00 0.00 0.00 65 1015.3
20260831031528 18 198 0.0 3.2 0.00 0.00 0.00 64 1015.3
20260831031025 18 198 0.0 4.8 0.00 0.00 0.00 64 1015.3
20260831030526 19 198 1.6 4.8 0.00 0.00 0.00 63 1015.3
20260831030025 19 22 1.6 4.8 0.00 0.00 0.00 63 1015.2
20260831025524 19 229 0.0 4.8 0.00 0.00 0.00 62 1015.2
20260831025024 20 194 0.0 3.2 0.00 0.00 0.00 62 1015.2
20260831024524 20 194 0.0 3.2 0.00 0.00 0.00 61 1015.1
20260831024023 20 242 0.0 3.2 0.00 0.00 0.00 60 1015.1
20260831023521 20 242 0.0 3.2 0.00 0.00 0.00 59 1015.2
20260831023021 21 246 0.0 4.8 0.00 0.00 0.00 58 1015.2
20260831022520 21 246 0.0 4.8 0.00 0.00 0.00 57 1015.2
20260831022018 21 246 1.6 6.4 0.00 0.00 0.00 57 1015.3
20260831021519 21 246 1.6 6.4 0.00 0.00 0.00 56 1015.2
20260831021018 22 246 1.6 11.3 0.00 0.00 0.00 53 1015.2
20260831020524 23 289 3.2 9.7 0.00 0.00 0.00 53 1015.3
20260831020518 22 265 3.2 11.3 0.00 0.00 0.00 53 1015.2
20260831015518 23 311 3.2 8.0 0.00 0.00 0.00 49 1015.3
20260831015019 23 296 3.2 8.0 0.00 0.00 0.00 46 1015.3
20260831014519 23 10 1.6 8.0 0.00 0.00 0.00 45 1015.4
20260831014019 24 5 3.2 8.0 0.00 0.00 0.00 45 1015.3
20260831013520 24 36 3.2 8.0 0.00 0.00 0.00 45 1015.3
20260831013019 24 78 1.6 8.0 0.00 0.00 0.00 45 1015.3
20260831012523 24 19 3.2 8.0 0.00 0.00 0.00 44 1015.4
20260831012518 24 19 1.6 8.0 0.00 0.00 0.00 44 1015.4
20260831011519 25 36 1.6 8.0 0.00 0.00 0.00 44 1015.4
20260831011019 25 69 3.2 8.0 0.00 0.00 0.00 44 1015.4
20260831010519 24 22 1.6 8.0 0.00 0.00 0.00 43 1015.4
20260831010021 25 22 1.6 8.0 0.00 0.00 0.00 43 1015.6
20260831005519 25 0 1.6 8.0 0.00 0.00 0.00 42 1015.6
20260831005018 25 9 3.2 14.5 0.00 0.00 0.00 43 1015.6
20260831004519 25 19 3.2 14.5 0.00 0.00 0.00 43 1015.7
20260831004018 25 180 1.6 4.8 0.00 0.00 0.00 42 1015.7
20260831003518 25 177 1.6 11.3 0.00 0.00 0.00 41 1015.9
20260831003019 25 25 3.2 11.3 0.00 0.00 0.00 42 1015.9
20260831002519 25 17 3.2 6.4 0.00 0.00 0.00 42 1015.9
20260831002024 25 265 3.2 12.9 0.00 0.00 0.00 42 1016.0
20260831002019 25 36 3.2 6.4 0.00 0.00 0.00 43 1016.0
20260831001024 25 265 1.6 4.8 0.00 0.00 0.00 41 1016.0
20260831001020 25 355 1.6 12.9 0.00 0.00 0.00 42 1016.0
20260831000023 25 315 1.6 6.4 0.00 0.00 0.00 41 1016.1
20260831000019 25 289 1.6 6.4 0.00 0.00 0.00 42 1016.1
20260830235018 25 0 1.6 4.8 0.00 0.00 0.00 41 1016.1
20260830234524 25 269 1.6 4.8 0.00 0.00 0.00 41 1016.3
20260830234519 25 114 1.6 4.8 0.00 0.00 0.00 41 1016.2
20260830233518 25 21 1.6 4.8 0.00 0.00 0.00 43 1016.4
20260830233019 24 17 1.6 12.9 0.00 0.00 0.00 43 1016.6
20260830232520 24 33 1.6 12.9 0.00 0.00 0.00 43 1016.6
20260830232018 24 38 4.8 14.5 0.00 0.00 0.00 42 1016.7
20260830231514 24 20 3.2 14.5 0.00 0.00 0.00 42 1016.8
20260830231019 23 169 3.2 9.7 0.00 0.00 0.00 43 1016.9
20260830231014 24 30 1.6 9.7 0.00 0.00 0.00 43 1016.8
20260830230513 23 163 3.2 8.0 0.00 0.00 0.00 44 1016.9
20260830230126 24 65 3.2 9.7 0.00 0.00 0.00 42 1017.0
20260830225012 24 91 3.2 8.0 0.00 0.00 0.00 43 1017.1
20260830224510 24 40 3.2 8.0 0.00 0.00 0.00 43 1017.1
20260830224010 24 13 3.2 8.0 0.00 0.00 0.00 43 1017.2
20260830223510 23 0 3.2 9.7 0.00 0.00 0.00 43 1017.3
20260830223011 24 106 1.6 9.7 0.00 0.00 0.00 45 1017.5
20260830222508 23 215 3.2 11.3 0.00 0.00 0.00 44 1017.6
20260830222007 23 82 3.2 11.3 0.00 0.00 0.00 44 1017.7
20260830221506 23 327 1.6 6.4 0.00 0.00 0.00 44 1017.8
20260830221012 23 308 4.8 16.1 0.00 0.00 0.00 44 1017.9
20260830221007 23 257 1.6 8.0 0.00 0.00 0.00 43 1017.8
20260830220006 23 11 4.8 16.1 0.00 0.00 0.00 45 1018.0
20260830215506 22 0 1.6 12.9 0.00 0.00 0.00 45 1018.1
20260830215006 22 288 1.6 8.0 0.00 0.00 0.00 45 1018.1
20260830214506 22 331 3.2 12.9 0.00 0.00 0.00 46 1018.2
20260830214010 23 180 3.2 14.5 0.00 0.00 0.00 44 1018.4
20260830214005 23 260 3.2 14.5 0.00 0.00 0.00 44 1018.3
20260830213504 23 111 1.6 14.5 0.00 0.00 0.00 46 1018.4
20260830212504 22 49 3.2 14.5 0.00 0.00 0.00 46 1018.5
20260830212004 22 24 4.8 12.9 0.00 0.00 0.00 47 1018.6
20260830211504 22 308 4.8 11.3 0.00 0.00 0.00 45 1018.6
20260830211004 22 178 4.8 11.3 0.00 0.00 0.00 46 1018.7
20260830210505 22 161 3.2 9.7 0.00 0.00 0.00 46 1018.6
20260830210010 22 167 3.2 8.0 0.00 0.00 0.00 46 1018.7
20260830205504 21 92 3.2 8.0 0.00 0.00 0.00 47 1018.7
20260830205002 21 39 3.2 8.0 0.00 0.00 0.00 46 1018.9
20260830204502 22 12 4.8 11.3 0.00 0.00 0.00 47 1019.0
20260830204002 22 145 4.8 11.3 0.00 0.00 0.00 46 1019.0
20260830203501 21 157 4.8 9.7 0.00 0.00 0.00 48 1019.1
20260830203002 21 190 3.2 8.0 0.00 0.00 0.00 47 1019.1
20260830202502 21 138 4.8 11.3 0.00 0.00 0.00 47 1019.1
20260830202002 21 26 4.8 12.9 0.00 0.00 0.00 48 1019.2
20260830201502 21 22 3.2 12.9 0.00 0.00 0.00 49 1019.3
20260830201002 21 300 3.2 8.0 0.00 0.00 0.00 50 1019.4
20260830200504 21 276 3.2 8.0 0.00 0.00 0.00 50 1019.4
20260830200000 21 281 3.2 8.0 0.00 0.00 0.00 49 1019.5
20260830195500 20 355 3.2 8.0 0.00 0.00 0.00 51 1019.6
20260830195000 20 331 3.2 11.3 0.00 0.00 0.00 50 1019.6
20260830194500 20 55 1.6 11.3 0.00 0.00 0.00 53 1019.7
20260830193959 20 34 1.6 9.7 0.00 0.00 0.00 52 1019.8
20260830193501 20 274 3.2 9.7 0.00 0.00 0.00 53 1019.8
20260830193000 20 269 3.2 9.7 0.00 0.00 0.00 50 1019.9
20260830192500 21 201 1.6 9.7 0.00 0.00 0.00 48 1019.9
20260830192000 20 175 1.6 6.4 0.00 0.00 0.00 52 1019.9
20260830191501 20 87 3.2 6.4 0.00 0.00 0.00 51 1020.0
20260830190958 20 219 3.2 6.4 0.00 0.00 0.00 51 1020.1
20260830190459 20 210 1.6 6.4 0.00 0.00 0.00 53 1020.1
20260830190000 20 319 1.6 8.0 0.00 0.00 0.00 52 1020.2
20260830185458 20 349 4.8 16.1 0.00 0.00 0.00 54 1020.3
20260830184956 19 76 4.8 16.1 0.00 0.00 0.00 55 1020.3
20260830184503 19 307 3.2 6.4 0.00 0.00 0.00 54 1020.4
20260830184456 19 332 3.2 14.5 0.00 0.00 0.00 55 1020.3
20260830183956 19 5 3.2 14.5 0.00 0.00 0.00 55 1020.4
20260830183000 19 182 3.2 14.5 0.00 0.00 0.00 56 1020.4
20260830182956 19 302 3.2 6.4 0.00 0.00 0.00 54 1020.5
20260830181956 18 195 3.2 14.5 0.00 0.00 0.00 57 1020.5
20260830181455 18 44 1.6 8.0 0.00 0.00 0.00 58 1020.4
20260830180956 18 81 3.2 8.0 0.00 0.00 0.00 57 1020.5
20260830180502 18 67 1.6 6.4 0.00 0.00 0.00 59 1020.6
20260830180456 18 338 3.2 12.9 0.00 0.00 0.00 58 1020.5
20260830175954 18 170 3.2 12.9 0.00 0.00 0.00 58 1020.5